Preview of NWS' New Version of Forecast
This preview is not operational and should not be used for support decisions.
Latest weather observations around

Corona Airport (KAJO)

Using English Units (Switch to International System of Units)
Date/ Time (PDT) Wind (mph) Vis. (mi) Weather Sky Cond. Temp (°F) Rel. Humidity Wind Chill (°F) Heat Index (°F) Pressure Precip. (in)
Air Dwpt 6 hour Altimeter (inHg) Sea level (inHg) 1 hr 3 hr 6 hr
Max Min
Aug 19 06:56 Calm 7 Cloudy OVC009 63 61     93%     29.97 29.96      
Aug 19 05:56 Calm 9 Cloudy OVC009 62 60     93%     29.97 29.95      
Aug 19 05:40 Calm 7 Mostly Cloudy BKN009 61 59     94%     29.96        
Aug 19 03:56 WNW 5 10 Clear CLR 62 60     93%     29.94 29.92      
Aug 19 02:56 W 5 10 Clear CLR 62 59     90%     29.93 29.91      
Aug 19 01:56 W 3 10 Clear CLR 63 60     90%     29.93 29.91      
Aug 19 00:56 W 3 10 Clear CLR 64 60     87%     29.92 29.91      
Aug 18 23:56 W 5 10 Clear CLR 65 60     84%     29.93 29.91      
Aug 18 21:56 WNW 5 10 Clear CLR 68 61     78%     29.91 29.89      
Aug 18 20:56 W 8 10 Clear CLR 70 61     73%     29.89 29.87      
Aug 18 18:56 W 9 10 Clear CLR 77 62     60%   77 29.85 29.83      
Aug 18 17:56 WNW 14 10 Clear CLR 81 62     53%   82 29.84 29.82      
Aug 18 15:56 W 14 10 Clear CLR 84 62     48%   85 29.86 29.84      
Aug 18 14:56 W 10 10 Clear CLR 86 62     45%   87 29.87 29.85      
Aug 18 13:56 W 8 10 Clear CLR 84 62     48%   85 29.9 29.88      
Aug 18 12:56 NW 5 10 Clear CLR 80 62     54%   81 29.92 29.91      
Aug 18 11:56 W 6 10 Clear CLR 78 62     58%   78 29.94 29.92      
Aug 18 10:39 E 3 10 Partly Cloudy SCT017 72 61     69%   72 29.96        
Aug 18 09:56   10 Cloudy OVC017 69 61     75%     29.95 29.93      
Aug 18 09:30 Calm 10 Cloudy OVC015 66 61     83%     29.95        
Aug 18 08:56 WNW 3 10 Cloudy OVC011 66 60     81%     29.94 29.93      
Aug 18 07:56 Calm 10 Cloudy OVC011 64 60     87%     29.93 29.91      
Aug 18 06:56   10 Cloudy OVC011 63 60     90%     29.92 29.9      
Aug 18 05:56 Calm 10 Cloudy OVC011 62 59     90%     29.9 29.88      
Aug 18 04:31 Calm 10 Mostly Cloudy BKN013 57 55     94%              
Aug 18 03:56 Calm 10 Clear CLR 58 56     93%     29.9 29.88      
Aug 18 02:56 Calm 10 Clear CLR 58 56     93%     29.9 29.88      
Aug 18 00:56 Calm 10 Clear CLR 62 59     90%     29.9 29.88      
Aug 17 23:56 Calm 10 Clear CLR 62 59     90%     29.9 29.88      
Aug 17 21:56 W 7 10 Clear CLR 65 60     84%     29.89 29.87      
Aug 17 20:56 W 13 10 Clear CLR 67 60     79%     29.86 29.85      
Aug 17 18:56   10 Clear CLR 74 61     64%   74 29.82 29.8      
Aug 17 17:56 W 14 10 Clear CLR 78 62     58%   78 29.81 29.79      
Aug 17 16:56 WNW 15 10 Clear CLR 82 62     51%   83          
Aug 17 15:56 W 15 10 Clear CLR 83 61     48%   83 29.83 29.82      
Aug 17 14:56 W 14 10 Clear CLR 83 62     49%   84 29.85 29.83      
Aug 17 13:56 W 14 10 Clear CLR 84 60     44%   84 29.87 29.85      
Aug 17 12:56 WSW 13 10 Clear CLR 82 60     47%   82 29.89 29.87      
Aug 17 11:56 5 10 Clear CLR 78 62     58%   78 29.91 29.89      
Aug 17 10:10 WNW 3 9 Partly Cloudy SCT016 70 61     73%     29.94        
Aug 17 09:56   10 Mostly Cloudy BKN016 70 60     71%              
Aug 17 09:46 NW 5 10 Cloudy OVC016 70 61     73%              
Aug 17 08:56   10 Cloudy OVC014 65 59     81%     29.95 29.93      
Aug 17 07:56   10 Clear   64 59     84%     29.94 29.92      
Aug 17 06:56   10 Cloudy OVC012 63 59     87%     29.93 29.91      
Aug 17 05:56   10 Cloudy OVC012 63 59     87%     29.92 29.9      
Aug 17 03:56 Calm 10 Cloudy OVC014 59 58     96%     29.91 29.89      
Aug 17 03:45 Calm 10 Mostly Cloudy BKN014 61 57     88%     29.91        
Aug 17 02:56 Calm 10 Clear CLR 59 57     93%     29.91 29.89      
Aug 17 00:56 W 6 10 Clear CLR 63 60     90%     29.93 29.91      
Aug 16 23:56 WNW 6 10 Clear CLR 64 60     87%     29.93 29.91      
Aug 16 21:56 WNW 7 10 Clear CLR 66 61     84%     29.93 29.91      
Aug 16 20:56 W 10 10 Clear CLR 67 61     81%     29.9 29.88      
Aug 16 19:56 W 7 10 Clear   71 61     70%   71 29.87 29.85      
Aug 16 18:56 W 10 10 Clear CLR 76 61     60%   76 29.85 29.83      
Aug 16 17:56 WNW 10 10 Clear CLR 80 62     54%   81 29.84 29.83      
Aug 16 16:56 WNW 14 10 Clear CLR 84 62     48%   85 29.84 29.83      
Aug 16 15:56 WNW 13 10 Clear CLR 87 62     43%   88 29.85 29.83      
Aug 16 14:56 WNW 16 10 Clear   86 63     46%   87 29.87 29.85      
Aug 16 13:56 W 14 10 Clear CLR 88 62     42%   88 29.88 29.86      
Aug 16 12:56 W 10 10 Clear CLR 88 62     42%   88 29.9 29.88      
Aug 16 11:56 WNW 7 10 Clear CLR 87 60     40%   87 29.93 29.9      
Aug 16 09:56 Calm 9 Clear CLR 74 61     64%   74 29.97 29.95      
Aug 16 08:56 Calm 7 Clear CLR 67 61     81%     29.97 29.95      
Aug 16 06:56 W 5 3 Fog/Mist CLR 61 59     93%              
Aug 16 06:47 W 5 2.5 Fog/Mist CLR 61 59     94%     29.96        
Aug 16 05:56 Calm 4 Fog/Mist CLR 60 59     96%     29.94 29.92      
Aug 16 03:56 W 6 5 Fog/Mist CLR 61 60     97%     29.91 29.89      
Aug 16 02:56 W 7 7 Clear CLR 62 60     93%     29.91 29.88      
May 15 04:24 Calm 10 Clear CLR 46 45     93%     30        
May 15 03:56 Calm 7 Clear CLR 48 47     96%     30        
May 14 13:56 W 18 10 Clear CLR 73 52     48%   72 29.96 29.99      
May 12 12:20 Calm 10 Cloudy BKN027 OVC042 63 50     63%     29.99        
May 12 02:15   10 Cloudy BKN027 OVC040 59 52     77%              
May 12 00:11 W 5 10 Cloudy BKN028 OVC033 61 52     72%     29.89        
May 11 21:56 NNE 6 10 Cloudy OVC033 62 50     65%     29.86 29.89      
Jun 12 03:56 Calm 10 Clear CLR 51 48     89%     29.99        
Jun 11 09:56 W 6 10 Cloudy OVC033 62 54     75%     29.92 29.95      
Jun 11 01:56 Calm 10 Cloudy OVC022 60 53     78%     29.88        
Jun 09 23:56 NW 5 10 Clear CLR 63 58     84%     29.92        
Jun 09 18:56   10 Clear CLR 73 58     59%   73 29.87 29.9      
Jun 08 12:56 WNW 10 10 Clear CLR 72 57     59%   72 30.01 30.03      
Jun 08 10:56 W 7 10 Cloudy OVC022 68 56     65%     30.03        
Jun 05 17:56 WNW 13 10 Clear CLR 75 60     60%   75 29.82 29.84